SCP
0 0 0 0 0 0 0 0 0 0 0 0 0 0 0 0 0 0 0 0 0 0 0 0 0 0 0 0 0 0 0 0 0 0 0 0 0 0 0 0 0 0 0
0 0 0 0 0 0 0 0 0 0 0 0 0 0 0 0 0 0 0 0 0 0 0 0 0 0 0 0 0 0 0 0 0 0 0 0 0 0 0 0 0 0 0
0 0 0 0 0 0 0 0 0 0 0 0 0 0 0 0 0 0 0 0 0 0 0 0 0 0 0 0 0 0 0 0 0 0 0 0 0 0 0 0 0 0 0
0 0 0 0 0 0 0 0 0 0 0 0 0 0 0 0 0 0 0 0 0 0 0 0 0 0 0 0 0 0 0 0 0 0 0 0 0 0 0 0 0 0 0
0 0 0 0 0 0 0 0 0 0 0 0 0 0 0 0 0 0 0 0 0 0 0 0 0 0 0 0 0 0 0 0 0 0 0 0 0 0 0 0 0 0 0
0 0 0 0 0 0 0 0 0 0 0 0 0 0 0 0 0 0 0 0 0 0 0 0 0 0 0 0 0 0 0 0 0 0 0 0 0 0 0 0 0 0 0
0 0 0 0 0 0 0 0 0 0 0 0 0 0 0 0 0 0 0 0 0 0 0 0 0 0 0 0 0 0 0 0 0 0 0 0 0 0 0 0 0 0 0
0 0 0 0 0 0 0 0 0 0 0 0 0 0 0 0 0 0 0 0 0 0 0 0 0 0 0 0 0 0 0 0 0 0 0 0 0 0 0 0 0 0 0
0 0 0 0 0 0 0 0 0 0 0 0 0 0 0 0 0 0 0 0 0 0 0 0 0 0 0 0 0 0 0 0 0 0 0 0 0 0 0 0 0 0 0
0 0 0 0 0 0 0 0 0 0 0 0 0 0 0 0 0 0 0 0 0 0 0 0 0 0 0 0 0 0 0 0 0 0 0 0 0 0 0 0 0 0 0
0 0 0 0 0 0 0 0 0 0 0 0 0 0 0 0 0 0 0 0 0 0 0 0 0 0 0 0 0 0 0 0 0 0 0 0 0 0 0 0 0 0 0
0 0 0 0 0 0 0 0 0 0 0 0 0 0 0 0 0 0 0 0 0 0 0 0 0 0 0 0 0 0 0 0 0 0 0 0 0 0 0 0 0 0 0
0 0 0 0 0 0 0 0 0 0 0 0 0 0 0 0 0 0 0 0 0 0 0 0 0 0 0 0 0 0 0 0 0 0 0 0 0 0 0 0 0 0 0
0 0 0 0 0 0 0 0 0 0 0 0 0 0 0 0 0 0 0 0 0 0 0 0 0 0 0 0 0 0 0 0 0 0 0 0 0 0 0 0 0 0 0
0 0 0 0 0 0 0 0 0 0 0 0 0 0 0 0 0 0 0 0 0 0 0 0 0 0 0 0 0 0 0 0 0 0 0 0 0 0 0 0 0 0 0
0 0 0 0 0 0 0 0 0 0 0 0 0 0 0 0 0 0 0 0 0 0 0 0 0 0 0 0 0 0 0 0 0 0 0 0 0 0 0 0 0 0 0
0 0 0 0 0 0 0 0 0 0 0 0 0 0 0 0 0 0 0 0 0 0 0 0 0 0 0 0 0 0 0 0 0 0 0 0 0 0 0 0 0 0 0
0 0 0 0 0 0 0 0 0 0 0 0 0 0 0 0 0 0 0 0 0 0 0 0 0 0 0 0 0 0 0 0 0 0 0 0 0 0 0 0 0 0 0
0 0 0 0 0 0 0 0 0 0 0 0 0 0 0 0 0 0 0 0 0 0 0 0 0 0 0 0 0 0 0 0 0 0 0 0 0 0 0 0 0 0 0
0 0 0 0 0 0 0 0 0 0 0 0 0 0 0 0 0 0 0 0 0 0 0 0 0 0 0 0 0 0 0 0 0 0 0 0 0 0 0 0 0 0 0
0 0 0 0 0 0 0 0 0 0 0 0 0 0 0 0 0 0 0 0 0 0 0 0 0 0 0 0 0 0 0 0 0 0 0 0 0 0 0 0 0 0 0
0 0 0 0 0 0 0 0 0 0 0 0 0 0 0 0 0 0 0 0 0 0 0 0 0 0 0 0 0 0 0 0 0 0 0 0 0 0 0 0 0 0 0
0 0 0 0 0 0 0 0 0 0 0 0 0 0 0 0 0 0 0 0 0 0 0 0 0 0 0 0 0 0 0 0 0 0 0 0 0 0 0 0 0 0 0
0 0 0 0 0 0 0 0 0 0 0 0 0 0 0 0 0 0 0 0 0 0 0 0 0 0 0 0 0 0 0 0 0 0 0 0 0 0 0 0 0 0 0
0 0 0 0 0 0 0 0 0 0 0 0 0 0 0 0 0 0 0 0 0 0 0 0 0 0 0 0 0 0 0 0 0 0 0 0 0 0 0 0 0 0 0
0 0 0 0 0 0 0 0 0 0 0 0 0 0 0 0 0 0 0 0 0 0 0 0 0 0 0 0 0 0 0 0 0 0 0 0 0 0 0 0 0 0 0
Wind_Speed
2 3 6 6 6 6 6 7 7 7 7 7 8 9 9 9 9 9 9 9 9 10 9 9 8 9 11 12 12 12 12 11 11 11 11 11 12 11 11 11 10 7 10
3 3 6 5 5 5 6 6 6 7 7 7 7 8 9 9 9 9 9 9 9 9 9 9 8 9 10 11 11 11 11 11 11 11 10 10 10 10 10 10 10 6 10
4 3 4 5 5 5 6 6 6 6 7 7 8 9 9 9 9 9 8 8 8 8 9 8 8 9 9 10 11 11 11 11 10 10 10 6 7 9 9 10 9 9 9
4 3 3 5 5 5 6 5 6 6 6 7 8 8 8 8 8 8 8 8 8 8 8 8 8 9 9 10 10 10 10 10 10 10 5 4 5 8 9 9 9 9 9
3 2 3 5 5 5 5 5 6 6 6 6 7 7 7 7 7 7 7 7 7 7 8 8 8 8 8 9 9 9 9 9 9 7 4 4 4 7 9 9 9 9 9
2 1 2 4 5 5 6 5 5 5 5 6 6 6 6 6 6 6 6 6 6 6 7 7 7 7 8 8 8 8 8 8 7 4 4 4 4 8 8 8 9 9 9
2 1 0 3 4 5 6 5 5 5 5 6 7 6 6 6 5 5 5 5 6 6 6 6 6 7 7 7 7 7 8 8 5 4 4 4 5 8 8 8 8 8 9
2 1 1 2 4 5 6 5 5 5 6 6 6 6 5 5 4 4 4 4 5 5 6 6 6 6 6 6 6 6 6 6 5 5 4 4 6 8 8 8 8 8 8
3 2 2 2 2 5 5 5 5 5 6 6 6 5 5 4 4 3 3 3 4 4 5 5 5 5 6 6 6 6 6 6 4 3 5 4 7 8 8 8 8 8 9
3 3 3 3 3 2 2 4 4 5 5 5 5 4 4 3 3 2 2 3 3 3 4 4 4 4 5 5 6 5 5 4 3 3 3 4 8 8 8 9 9 8 8
3 3 3 3 2 2 2 2 3 4 4 4 3 4 3 2 1 1 2 2 2 3 3 3 2 3 3 4 5 5 4 2 3 3 3 5 7 8 9 8 9 9 9
1 2 2 3 2 2 2 2 2 2 3 3 2 2 2 2 1 1 1 1 1 2 2 1 2 2 2 1 2 3 2 3 3 3 3 6 7 8 8 8 8 8 8
1 1 2 2 3 3 2 2 2 2 2 2 3 3 2 2 1 1 1 1 1 1 1 1 1 1 1 1 1 1 2 2 2 2 3 6 7 8 8 8 8 8 8
2 2 2 3 3 3 3 2 2 2 2 2 2 3 2 2 2 2 1 1 1 1 1 1 1 1 1 2 2 2 2 2 2 2 3 6 6 7 8 8 9 9 8
2 2 2 3 3 3 3 2 2 2 2 2 2 2 2 2 2 2 2 2 2 1 1 1 1 2 2 2 2 2 2 2 2 2 2 5 5 6 7 7 8 9 8
2 2 2 3 3 3 3 2 2 2 2 2 2 2 2 2 2 2 2 2 2 2 1 1 1 2 2 2 2 2 2 2 2 2 2 3 5 5 5 5 6 7 8
3 2 3 3 3 3 3 2 2 2 2 2 2 2 2 2 2 2 2 2 2 2 2 2 2 2 2 2 2 1 1 2 2 2 2 2 2 4 4 4 5 5 7
3 3 2 3 3 3 3 2 2 2 3 2 2 2 2 2 2 2 2 2 2 2 2 2 2 2 2 2 2 1 1 1 3 3 2 2 2 2 3 4 5 4 5
3 3 3 3 3 3 3 3 3 3 3 2 2 2 2 3 3 2 2 2 2 2 2 2 2 2 2 2 2 2 2 2 2 3 2 2 2 2 2 3 4 4 5
3 3 3 3 2 3 3 3 3 3 3 2 2 2 3 2 3 2 2 2 2 2 3 3 2 2 2 2 3 3 2 2 2 2 2 2 2 2 2 2 2 2 4
3 3 3 3 2 2 2 2 2 1 1 2 2 3 3 2 2 3 2 2 2 2 2 2 2 3 3 2 3 2 3 3 3 2 2 2 2 1 2 2 1 1 1
4 4 3 3 3 3 2 2 2 2 2 2 2 3 3 3 2 2 2 2 2 2 3 3 2 2 2 3 2 2 2 2 2 2 2 1 1 1 1 1 1 1 1
4 5 4 3 3 3 3 3 3 3 2 2 3 2 3 3 3 2 2 2 2 2 1 2 2 2 2 2 2 2 2 0 1 1 2 1 1 1 1 1 1 1 1
5 4 4 4 3 3 3 4 4 3 2 1 0 1 2 2 2 2 2 2 2 2 2 1 2 1 2 1 1 2 1 1 1 1 2 2 2 2 1 1 1 1 1
5 4 4 4 3 2 3 4 4 3 2 1 1 2 2 2 2 2 2 2 2 1 1 2 2 1 1 1 1 1 1 2 1 1 1 1 2 2 1 1 1 1 0
4 4 4 4 3 3 3 3 4 4 3 3 2 1 1 1 2 2 2 2 1 1 1 1 1 1 1 1 1 1 1 1 1 1 1 1 1 1 1 1 1 0 0
Wind_Direction
191 176 165 154 152 150 145 145 147 147 146 146 147 145 143 145 149 151 151 154 155 156 157 158 161 157 159 159 159 159 162 161 163 162 162 162 160 161 161 157 153 149 151
153 159 157 153 152 148 143 142 143 145 145 148 150 148 146 149 152 152 154 154 155 159 160 160 159 153 154 158 158 159 162 162 162 162 163 164 165 164 165 161 159 156 158
128 136 145 149 152 150 146 143 144 146 145 146 147 147 147 149 151 154 157 158 160 161 162 161 160 159 159 161 161 163 163 164 166 168 165 160 162 165 166 164 161 161 161
122 119 140 151 154 146 143 143 144 140 138 137 140 145 147 147 150 157 159 162 164 164 164 162 162 162 162 163 163 164 165 167 170 169 163 157 166 171 168 168 168 169 169
112 116 157 156 157 148 149 145 141 137 138 138 138 142 144 146 153 160 161 162 163 163 162 163 165 167 166 166 167 167 168 168 169 166 153 158 167 174 173 175 174 175 172
102 112 172 156 156 156 155 149 145 144 143 144 141 138 140 145 149 156 162 161 163 165 165 166 171 174 171 171 172 172 171 172 169 155 158 168 176 179 180 180 178 176 170
91 58 236 146 154 158 156 151 146 137 135 133 133 133 136 141 145 149 157 160 164 167 167 169 178 178 175 175 174 173 174 174 162 156 167 174 179 179 182 180 179 178 172
91 37 6 126 138 145 146 142 136 127 127 129 132 134 135 137 138 146 153 156 162 171 173 174 178 177 180 178 173 169 168 172 170 169 168 174 177 182 183 182 177 175 170
67 44 16 40 106 136 141 135 126 121 122 126 132 134 137 138 137 138 139 142 158 169 169 170 180 183 182 179 174 168 170 177 161 162 177 178 180 181 182 181 178 174 172
52 38 31 39 47 67 103 119 117 118 117 116 118 121 126 127 122 134 141 140 151 160 171 177 181 185 185 181 175 168 172 180 166 170 184 182 182 182 183 179 179 177 175
48 27 29 40 46 55 66 88 88 103 100 92 94 93 81 55 64 120 132 133 141 156 165 173 174 172 176 178 176 176 183 165 165 179 186 184 183 185 186 183 180 180 179
46 22 29 46 58 66 75 59 56 73 72 67 58 51 44 33 33 77 98 114 128 134 151 158 153 149 158 150 170 188 170 161 176 187 189 185 188 192 192 189 184 182 183
130 60 48 65 71 81 68 66 56 61 62 60 55 49 46 34 23 40 56 36 59 85 80 97 96 111 126 139 149 153 159 168 177 187 186 184 192 197 196 192 188 186 188
88 64 69 76 79 79 77 73 69 68 65 59 52 52 52 38 28 49 62 48 49 62 77 79 102 111 121 134 147 154 162 172 179 182 182 186 192 197 198 195 194 189 190
94 79 78 84 86 84 80 74 75 68 70 59 50 47 59 54 42 48 58 55 46 48 56 70 105 122 128 130 144 152 167 180 180 171 181 187 187 191 193 195 194 188 187
123 109 87 88 92 92 88 83 75 70 70 63 52 47 62 64 61 54 49 47 39 33 32 54 89 115 123 132 142 149 158 170 166 158 163 175 173 179 184 191 189 181 183
136 114 106 111 95 94 94 92 82 70 68 59 45 44 62 74 73 66 56 43 27 27 34 48 57 81 95 100 107 120 134 144 146 143 138 141 160 164 165 170 171 172 180
118 108 105 113 105 101 92 82 69 65 68 54 41 43 53 73 85 84 71 44 23 38 37 46 58 70 72 74 82 76 75 98 120 123 119 117 123 144 151 154 156 164 174
138 125 111 104 109 108 93 80 71 65 59 50 46 45 43 59 71 84 73 48 40 50 42 48 56 72 77 69 75 74 67 83 103 114 109 105 109 120 139 153 151 158 171
135 126 121 110 101 100 89 77 67 59 48 46 49 44 49 58 68 75 67 48 49 57 46 41 50 54 67 68 73 60 54 67 80 90 99 97 104 119 122 126 130 157 164
128 129 135 130 121 111 99 95 84 65 49 45 46 45 47 51 63 73 61 50 53 58 52 50 61 56 46 49 69 53 45 59 67 68 74 85 86 93 99 114 124 123 152
155 152 146 144 138 133 127 123 116 108 86 68 40 42 43 48 54 80 75 67 61 62 50 48 61 65 52 40 65 80 43 30 35 48 67 90 75 69 81 97 117 127 135
163 165 159 154 144 136 124 105 92 72 55 48 39 26 23 41 54 62 62 69 63 71 64 49 65 82 79 41 47 90 104 109 358 20 48 55 55 68 54 61 78 92 119
168 159 147 147 142 136 129 124 127 122 115 112 85 44 26 40 50 52 56 61 61 63 67 53 64 76 94 76 34 49 89 130 117 42 31 43 47 51 35 44 56 93 122
152 151 144 138 131 124 128 136 126 115 117 99 75 58 35 28 40 47 54 55 55 52 54 53 57 75 91 102 79 68 72 62 80 116 75 25 32 26 26 37 62 58 88
138 133 134 133 130 128 128 130 136 139 135 118 98 75 32 18 22 31 57 56 55 51 43 44 56 69 85 101 91 90 125 131 134 131 135 83 13 349 6 25 44 26 32